This is the latest recevied weather packets stored in our database for station/object K1BES. If no packets are shown the sender has not sent any weather packets the latest 10 day(s).
| Time | Temp. | Humidity | Pressure | Rain* | Wind** | Luminosity | Snow |
|---|---|---|---|---|---|---|---|
| 1777206810 | 23.89° C | 93% | 1014.7 hPa | 0 mm | - | 108 W/m² | - |
| 1777206510 | 23.89° C | 94% | 1014.7 hPa | 0 mm | - | 99 W/m² | - |
| 1777206206 | 23.33° C | 96% | 1014.7 hPa | 0 mm | - | 92 W/m² | - |
| 1777205901 | 22.78° C | 97% | 1014.7 hPa | 0 mm | - | 85 W/m² | - |
| 1777205598 | 22.78° C | 97% | 1014.6 hPa | 0 mm | - | 80 W/m² | - |
| 1777205295 | 22.22° C | 98% | 1014.7 hPa | 0 mm | - | 72 W/m² | - |
| 1777204990 | 22.22° C | 98% | 1014.4 hPa | 0 mm | - | 43 W/m² | - |
| 1777204686 | 22.22° C | 98% | 1014.3 hPa | 0 mm | - | 34 W/m² | - |
| 1777204381 | 21.67° C | 98% | 1014.3 hPa | 0 mm | - | 31 W/m² | - |
| 1777204078 | 21.67° C | 98% | 1014.5 hPa | 0 mm | - | 29 W/m² | - |
| 1777203773 | 21.67° C | 98% | 1014.4 hPa | 0 mm | - | 26 W/m² | - |
| 1777203468 | 21.67° C | 98% | 1014.3 hPa | 0 mm | - | 25 W/m² | - |
| 1777203164 | 21.67° C | 98% | 1014.3 hPa | 0 mm | - | 22 W/m² | - |
| 1777202861 | 21.67° C | 98% | 1014.3 hPa | 0 mm | - | 20 W/m² | - |
| 1777202560 | 21.67° C | 98% | 1014.2 hPa | 0 mm | - | 17 W/m² | - |
| 1777202255 | 21.67° C | 98% | 1014 hPa | 0 mm | - | 14 W/m² | - |
| 1777201952 | 21.67° C | 98% | 1014 hPa | 0 mm | - | 11 W/m² | - |
| 1777201647 | 21.67° C | 98% | 1014 hPa | 0 mm | - | 8 W/m² | - |
| 1777201343 | 21.67° C | 98% | 1014.1 hPa | 0 mm | - | 6 W/m² | - |
| 1777201039 | 21.67° C | 98% | 1014 hPa | 0 mm | - | 3 W/m² | - |
| 1777200736 | 21.67° C | 98% | 1014 hPa | 0 mm | - | 2 W/m² | - |
| 1777200436 | 21.67° C | 98% | 1013.6 hPa | 0 mm | - | 1 W/m² | - |
| 1777200132 | 21.67° C | 98% | 1013.6 hPa | 0 mm | - | 0 W/m² | - |
* Rain latest hour (hover to see other rain measurements)
** Current wind speed in m/s (hover to see current wind gust speed)